This demonstration page uses our WeatherBlox Daily Observations layout. Learn more.

Left ArrowRight Arrow

Hourly Observations for July 13, 2016

Temp ( °F °C ) Dew Point ( °F °C ) Humidity (%) Winds ( mph kmh ) Pressure ( in mb ) Visibility ( mi km ) Precip ( " mm )
12:53 am 00:53 Clear 72 22.2 70 21.1 94 94 SSE 10 17 29.83 1010 10 16 0.00 0.00
1:53 am 01:53 Clear 72 22.2 70 21.1 94 94 SSE 9 15 29.80 1009 8 13 0.00 0.00
2:04 am 02:04 Mostly Clear 72 22 70 21 94 94 SSE 8 13 29.77 1008 8 13 0.00 0.00
2:53 am 02:53 Clear 72 22.2 70 21.1 94 94 S 9 15 29.80 1009 7 11 0.00 0.00
3:53 am 03:53 Mostly Clear 72 22.2 70 21.1 94 94 SW 5 7 29.83 1010 7 11 0.00 0.00
4:53 am 04:53 Clear 72 22.2 70 21.1 94 94 NNW 6 9 29.82 1010 7 11 0.00 0.00
5:00 am 05:00 Partly Cloudy 72 22 70 21 94 94 Calm 29.80 1009 7 11 0.00 0.00
5:10 am 05:10 Mostly Cloudy 72 22 70 21 94 94 NW 3 6 29.80 1009 7 11 0.00 0.00
5:53 am 05:53 Mostly Cloudy with Mist and Fog 73 22.8 71 21.7 94 94 SSW 5 7 29.84 1011 6 10 0.00 0.00
6:15 am 06:15 Partly Cloudy with Mist and Fog 73 22.8 70 21.1 90 90 S 6 9 29.80 1009 6 10 0.00 0.00
6:53 am 06:53 Cloudy with Light Rain 72 22.2 59 15 64 64 WSW 17 28 29.85 1011 10 16 0.00 0.03
7:17 am 07:17 Cloudy with Thunderstorms 70 21.1 59 15 68 68 SSW 17 28 29.85 1011 10 16 0.01 0.25
7:26 am 07:26 Cloudy with Light Rain 69 20.6 59 15 70 70 SSE 25 41 29.71 1006 7 11 0.03 0.76
7:53 am 07:53 Mostly Sunny 69 20.6 59 15 70 70 SSE 13 20 29.82 1010 10 16 0.03 0.76
8:53 am 08:53 Sunny 70 21.1 61 16.1 73 73 SSE 6 9 29.81 1010 10 16 0.00 0.00
9:53 am 09:53 Sunny 77 25 60 15.6 56 56 SE 7 11 29.80 1009 10 16 0.00 0.00
11:53 am 11:53 Sunny 82 28 63 17 51 51 NE 6 9 29.80 1009 10 16 0.00 0.00
12:53 pm 12:53 Sunny 84 29 63 17 48 48 NE 3 6 29.83 1010 10 16 0.00 0.00
1:53 pm 13:53 Sunny 84 28.9 62 16.7 48 48 ENE 3 6 29.88 1012 10 16 0.00 0.00
2:53 pm 14:53 Sunny 86 30 62 16.7 45 45 NW 8 13 29.87 1012 10 16 0.00 0.00
3:53 pm 15:53 Sunny 86 30 62 16.7 45 45 NE 3 6 29.87 1011 10 16 0.00 0.00
5:53 pm 17:53 Sunny 87 30.6 63 17.2 45 45 NNE 3 6 29.87 1012 10 16 0.00 0.00
6:53 pm 18:53 Sunny 84 28.9 67 19.4 57 57 NE 13 20 29.88 1012 10 16 0.00 0.00
7:53 pm 19:53 Sunny 82 27.8 66 18.9 58 58 NE 8 13 29.91 1013 10 16 0.00 0.00
8:53 pm 20:53 Sunny 76 24.4 64 17.8 67 67 ENE 6 9 29.92 1013 10 16 0.00 0.00
9:53 pm 21:53 Clear 73 22.8 63 17.2 71 71 E 6 9 29.94 1014 10 16 0.00 0.00
10:53 pm 22:53 Clear 72 22.2 63 17.2 73 73 E 7 11 29.96 1015 10 16 0.00 0.00
11:53 pm 23:53 Clear 72 22.2 61 16.1 68 68 ESE 6 9 29.96 1015 10 16 0.00 0.00

Powered by AerisWeather